• In Belarus
  • List of Countries
  • For 7 days
  • Water Temperature
  • Weather Map
  • Weather Widgets
  • user-avatar
    Login

    Hourly Weather Mikkeli

    Today, 28 May, Thursday

    Time Temperature Precipitation Wind Pressure Humidity
    00:00 +12°C° 0.1 mm 2 mps 756 mmHg 82%
    01:00 +12°C° 0.1 mm 2 mps 756 mmHg 85%
    02:00 +10°C° 0.1 mm 3 mps 756 mmHg 87%
    03:00 +10°C° 0.1 mm 3 mps 756 mmHg 84%
    04:00 +10°C° 0.1 mm 3 mps 756 mmHg 80%
    05:00 +10°C° 0.1 mm 3 mps 756 mmHg 77%
    06:00 +11°C° 0 mm 3 mps 756 mmHg 71%
    07:00 +12°C° 0 mm 3 mps 757 mmHg 65%
    08:00 +13°C° 0 mm 3 mps 757 mmHg 59%
    09:00 +14°C° 0 mm 3 mps 757 mmHg 52%
    10:00 +16°C° 0 mm 3 mps 757 mmHg 44%
    11:00 +17°C° 0 mm 3 mps 757 mmHg 36%
    12:00 +18°C° 0 mm 3 mps 757 mmHg 36%
    13:00 +18°C° 0 mm 3 mps 757 mmHg 35%
    14:00 +18°C° 0 mm 3 mps 758 mmHg 34%
    15:00 +18°C° 0 mm 3 mps 757 mmHg 35%
    16:00 +17°C° 0 mm 4 mps 757 mmHg 35%
    17:00 +17°C° 0 mm 4 mps 757 mmHg 36%
    18:00 +15°C° 0 mm 4 mps 758 mmHg 40%
    19:00 +14°C° 0 mm 3 mps 758 mmHg 44%
    20:00 +13°C° 0 mm 3 mps 758 mmHg 48%
    21:00 +11°C° 0 mm 3 mps 758 mmHg 52%
    22:00 +9°C° 0 mm 3 mps 759 mmHg 57%
    23:00 +8°C° 0 mm 2 mps 759 mmHg 61%

    Tomorrow, 29 May, Friday

    Time Temperature Precipitation Wind Pressure Humidity
    00:00 +7°C° 0 mm 2 mps 759 mmHg 65%
    01:00 +7°C° 0 mm 2 mps 759 mmHg 69%
    02:00 +6°C° 0 mm 2 mps 760 mmHg 74%
    03:00 +6°C° 0 mm 2 mps 760 mmHg 73%
    04:00 +7°C° 0 mm 2 mps 760 mmHg 72%
    05:00 +8°C° 0 mm 2 mps 760 mmHg 72%
    06:00 +9°C° 0 mm 2 mps 760 mmHg 64%
    07:00 +12°C° 0 mm 2 mps 760 mmHg 57%
    08:00 +14°C° 0 mm 2 mps 760 mmHg 49%
    09:00 +15°C° 0 mm 2 mps 760 mmHg 45%
    10:00 +16°C° 0 mm 2 mps 760 mmHg 41%
    11:00 +17°C° 0 mm 2 mps 760 mmHg 36%
    12:00 +17°C° 0 mm 2 mps 760 mmHg 36%
    13:00 +17°C° 0 mm 2 mps 760 mmHg 35%
    14:00 +18°C° 0 mm 2 mps 759 mmHg 35%
    15:00 +18°C° 0 mm 2 mps 759 mmHg 36%
    16:00 +18°C° 0 mm 2 mps 759 mmHg 37%
    17:00 +17°C° 0 mm 3 mps 759 mmHg 38%
    18:00 +16°C° 0 mm 2 mps 759 mmHg 44%
    19:00 +15°C° 0 mm 2 mps 759 mmHg 49%
    20:00 +14°C° 0 mm 2 mps 760 mmHg 54%
    21:00 +13°C° 0 mm 2 mps 760 mmHg 58%
    22:00 +10°C° 0 mm 2 mps 760 mmHg 62%
    23:00 +9°C° 0 mm 2 mps 760 mmHg 66%

    Day after tomorrow, 30 May, Saturday

    Time Temperature Precipitation Wind Pressure Humidity
    00:00 +9°C° 0 mm 2 mps 761 mmHg 69%
    01:00 +8°C° 0 mm 2 mps 761 mmHg 71%
    02:00 +8°C° 0 mm 2 mps 761 mmHg 73%
    03:00 +8°C° 0 mm 2 mps 762 mmHg 70%
    04:00 +9°C° 0 mm 2 mps 762 mmHg 67%
    05:00 +9°C° 0 mm 2 mps 762 mmHg 65%
    06:00 +12°C° 0 mm 2 mps 762 mmHg 57%
    07:00 +14°C° 0 mm 2 mps 762 mmHg 50%
    08:00 +16°C° 0 mm 2 mps 762 mmHg 43%
    09:00 +17°C° 0 mm 2 mps 762 mmHg 41%
    10:00 +18°C° 0 mm 3 mps 762 mmHg 38%
    11:00 +19°C° 0 mm 3 mps 762 mmHg 36%
    12:00 +20°C° 0 mm 3 mps 762 mmHg 35%
    13:00 +20°C° 0 mm 3 mps 762 mmHg 34%
    14:00 +21°C° 0 mm 3 mps 762 mmHg 34%
    15:00 +21°C° 0 mm 3 mps 762 mmHg 35%
    16:00 +20°C° 0 mm 3 mps 762 mmHg 36%
    17:00 +20°C° 0 mm 4 mps 762 mmHg 37%
    18:00 +19°C° 0 mm 3 mps 762 mmHg 42%
    19:00 +18°C° 0 mm 3 mps 762 mmHg 46%
    20:00 +16°C° 0 mm 3 mps 762 mmHg 50%
    21:00 +14°C° 0 mm 3 mps 763 mmHg 55%
    22:00 +12°C° 0 mm 3 mps 763 mmHg 60%
    23:00 +10°C° 0 mm 2 mps 763 mmHg 65%

    31 May, Sunday

    Time Temperature Precipitation Wind Pressure Humidity
    00:00 +10°C° 0 mm 2 mps 764 mmHg 67%
    01:00 +9°C° 0 mm 3 mps 764 mmHg 69%
    02:00 +9°C° 0 mm 3 mps 764 mmHg 71%
    03:00 +9°C° 0 mm 3 mps 764 mmHg 70%
    04:00 +9°C° 0 mm 3 mps 765 mmHg 69%
    05:00 +10°C° 0 mm 3 mps 765 mmHg 68%
    06:00 +11°C° 0 mm 3 mps 765 mmHg 62%
    07:00 +13°C° 0 mm 3 mps 765 mmHg 56%
    08:00 +14°C° 0 mm 3 mps 765 mmHg 50%
    09:00 +16°C° 0 mm 3 mps 765 mmHg 46%
    10:00 +17°C° 0 mm 3 mps 765 mmHg 43%
    11:00 +18°C° 0 mm 3 mps 765 mmHg 40%
    12:00 +19°C° 0 mm 3 mps 765 mmHg 38%
    13:00 +20°C° 0 mm 3 mps 764 mmHg 37%
    14:00 +21°C° 0 mm 2 mps 764 mmHg 36%
    15:00 +21°C° 0 mm 2 mps 764 mmHg 36%
    16:00 +21°C° 0 mm 2 mps 763 mmHg 37%
    17:00 +21°C° 0 mm 2 mps 763 mmHg 37%
    18:00 +21°C° 0 mm 1 mps 763 mmHg 44%
    19:00 +20°C° 0 mm 1 mps 763 mmHg 50%
    20:00 +19°C° 0 mm 1 mps 763 mmHg 56%
    21:00 +18°C° 0 mm 1 mps 763 mmHg 58%
    22:00 +15°C° 0 mm 1 mps 763 mmHg 61%
    23:00 +14°C° 0 mm 2 mps 763 mmHg 64%

    1 June, Monday

    Time Temperature Precipitation Wind Pressure Humidity
    00:00 +14°C° 0 mm 2 mps 763 mmHg 67%
    01:00 +13°C° 0 mm 2 mps 763 mmHg 69%
    02:00 +13°C° 0 mm 2 mps 763 mmHg 72%
    03:00 +13°C° 0 mm 2 mps 763 mmHg 72%
    04:00 +14°C° 0 mm 2 mps 763 mmHg 71%
    05:00 +14°C° 0 mm 2 mps 762 mmHg 70%
    06:00 +16°C° 0 mm 2 mps 762 mmHg 63%
    07:00 +18°C° 0 mm 2 mps 762 mmHg 55%
    08:00 +20°C° 0 mm 2 mps 762 mmHg 48%
    09:00 +21°C° 0 mm 2 mps 762 mmHg 44%
    10:00 +24°C° 0 mm 2 mps 762 mmHg 40%
    11:00 +25°C° 0 mm 2 mps 761 mmHg 37%
    12:00 +25°C° 0 mm 3 mps 761 mmHg 35%
    13:00 +26°C° 0 mm 3 mps 761 mmHg 34%
    14:00 +27°C° 0 mm 3 mps 760 mmHg 33%
    15:00 +27°C° 0 mm 3 mps 760 mmHg 33%
    16:00 +27°C° 0 mm 3 mps 760 mmHg 34%
    17:00 +27°C° 0 mm 3 mps 759 mmHg 34%
    18:00 +25°C° 0 mm 3 mps 759 mmHg 41%
    19:00 +24°C° 0 mm 2 mps 759 mmHg 47%
    20:00 +21°C° 0 mm 2 mps 759 mmHg 54%
    21:00 +21°C° 0 mm 1 mps 759 mmHg 58%
    22:00 +19°C° 0 mm 1 mps 759 mmHg 63%
    23:00 +18°C° 0 mm 1 mps 759 mmHg 67%

    2 June, Tuesday

    Time Temperature Precipitation Wind Pressure Humidity
    00:00 +16°C° 0.2 mm 1 mps 759 mmHg 71%
    01:00 +15°C° 0.2 mm 1 mps 759 mmHg 75%
    02:00 +15°C° 0.2 mm 1 mps 759 mmHg 79%
    03:00 +15°C° 0.2 mm 1 mps 759 mmHg 79%
    04:00 +15°C° 0.2 mm 1 mps 759 mmHg 80%
    05:00 +16°C° 0.2 mm 1 mps 759 mmHg 80%
    06:00 +18°C° 0 mm 1 mps 759 mmHg 73%
    07:00 +20°C° 0 mm 1 mps 759 mmHg 65%
    08:00 +22°C° 0 mm 1 mps 759 mmHg 58%
    09:00 +24°C° 0 mm 1 mps 759 mmHg 52%
    10:00 +25°C° 0 mm 1 mps 759 mmHg 45%
    11:00 +26°C° 0 mm 2 mps 759 mmHg 39%
    12:00 +27°C° 0 mm 2 mps 758 mmHg 37%
    13:00 +27°C° 0 mm 2 mps 758 mmHg 35%
    14:00 +27°C° 0 mm 2 mps 758 mmHg 33%
    15:00 +27°C° 0 mm 2 mps 757 mmHg 33%
    16:00 +26°C° 0 mm 3 mps 757 mmHg 34%
    17:00 +26°C° 0 mm 3 mps 757 mmHg 34%
    18:00 +25°C° 0 mm 2 mps 757 mmHg 40%
    19:00 +23°C° 0 mm 2 mps 756 mmHg 46%
    20:00 +21°C° 0 mm 2 mps 756 mmHg 53%
    21:00 +19°C° 0 mm 2 mps 756 mmHg 56%
    22:00 +18°C° 0 mm 2 mps 756 mmHg 59%
    23:00 +16°C° 0 mm 3 mps 756 mmHg 63%
    Show more